Weather History for Watsonville, CA

Change the Weather History Date:

Friday, May 24, 2013

  Actual Average Record
Temperature  
Mean Temperature 56 °F 60 °F  
Max Temperature 69 °F 71 °F 79 °F (2002)
Min Temperature 42 °F 48 °F 42 °F (2007)
Degree Days  
Heating Degree Days 9    
Month to date heating degree days 129  
Since 1 July heating degree days 2881  
Cooling Degree Days 0    
Month to date cooling degree days 6  
Year to date cooling degree days 6  
Growing Degree Days 5 (Base 50)    
Moisture  
Dew Point 42 °F    
Average Humidity 62    
Maximum Humidity 89    
Minimum Humidity 35    
Precipitation  
Precipitation 0.00 in - 0.04 in (1990)
Month to date precipitation T  
Year to date precipitation 2.34  
Since 1 July precipitation 13.28  
Sea Level Pressure  
Sea Level Pressure 30.02 in    
Wind  
Wind Speed 4 mph (SW)    
Max Wind Speed 14 mph    
Max Gust Speed 24 mph    
Visibility 10 miles    
Events      
T = Trace of Precipitation, MM = Missing Value Source: NWS Daily Summary

Daily Weather History Graph

Daily Weather History Graph

Search for Another Location

Airport:

Trip Planner

Search our weather history database for the weather conditions in past years. The results will help you decide how hot, cold, wet, or windy it might be!

Date:

Astronomy

May. 24, 2013 Rise Set
Actual Time 5:52 AM PDT 8:15 PM PDT
Civil Twilight 5:23 AM PDT 8:45 PM PDT
Nautical Twilight 4:46 AM PDT 9:22 PM PDT
Astronomical Twilight 4:06 AM PDT 10:02 PM PDT
Moon 8:04 PM PDT (5/24) 5:28 AM PDT (5/24)
Length of Visible Light 15h 22m
Length of Day
14h 22m
Full, 100% of the Moon is Illuminated
May 24
Full
May 24
Full
May 31
Last Quarter
Jun 8
New
Jun 16
First Quarter

Hourly Weather History & Observations

Time (PDT) Temp. Windchill Dew Point Humidity Pressure Visibility Wind Dir Wind Speed Gust Speed Precip Events Conditions
12:53 AM 46.9 °F - 41.0 °F 80% 30.02 in 10.0 mi NW 3.5 mph - N/A   Clear
1:53 AM 45.0 °F 43.5 °F 39.9 °F 82% 30.01 in 10.0 mi NW 3.5 mph - N/A   Clear
2:53 AM 44.1 °F 40.8 °F 39.0 °F 82% 30.00 in 10.0 mi NW 5.8 mph - N/A   Clear
3:53 AM 44.1 °F 42.5 °F 39.0 °F 82% 30.00 in 10.0 mi NW 3.5 mph - N/A   Clear
4:53 AM 42.1 °F 39.2 °F 39.0 °F 89% 30.01 in 10.0 mi WNW 4.6 mph - N/A   Clear
5:53 AM 43.0 °F 41.3 °F 39.0 °F 86% 30.02 in 10.0 mi NW 3.5 mph - N/A   Clear
6:53 AM 44.1 °F - 39.9 °F 85% 30.03 in 10.0 mi Calm Calm - N/A   Clear
7:34 AM 48.2 °F - 44.6 °F 87% 30.04 in 10.0 mi Calm Calm - N/A   Scattered Clouds
7:43 AM 48.2 °F - 44.6 °F 87% 30.04 in 10.0 mi Calm Calm - N/A   Mostly Cloudy
7:53 AM 48.9 °F - 44.1 °F 83% 30.04 in 10.0 mi Calm Calm - N/A   Overcast
8:53 AM 52.0 °F - 45.0 °F 77% 30.04 in 10.0 mi South 3.5 mph - N/A   Mostly Cloudy
9:01 AM 51.8 °F - 44.6 °F 76% 30.04 in 10.0 mi Calm Calm - N/A   Scattered Clouds
9:53 AM 55.9 °F - 45.0 °F 67% 30.04 in 10.0 mi Calm Calm - N/A   Clear
10:53 AM 61.0 °F - 46.0 °F 58% 30.04 in 10.0 mi Variable 3.5 mph - N/A   Clear
11:53 AM 62.1 °F - 44.1 °F 52% 30.03 in 10.0 mi SSW 10.4 mph - N/A   Clear
12:53 PM 63.0 °F - 43.0 °F 48% 30.03 in 10.0 mi South 8.1 mph - N/A   Clear
1:53 PM 64.0 °F - 39.9 °F 41% 30.03 in 10.0 mi Variable 6.9 mph - N/A   Clear
2:53 PM 68.0 °F - 39.0 °F 35% 30.01 in 10.0 mi South 8.1 mph - N/A   Clear
3:53 PM 68.0 °F - 42.1 °F 39% 30.00 in 10.0 mi SSW 6.9 mph - N/A   Clear
4:53 PM 66.9 °F - 41.0 °F 39% 29.99 in 10.0 mi SSE 4.6 mph - N/A   Clear
5:53 PM 64.0 °F - 42.1 °F 45% 29.99 in 10.0 mi East 10.4 mph - N/A   Clear
6:53 PM 57.0 °F - 45.0 °F 64% 29.99 in 10.0 mi East 10.4 mph - N/A   Clear
7:53 PM 54.0 °F - 44.1 °F 69% 30.01 in 10.0 mi East 6.9 mph - N/A   Clear
8:53 PM 52.0 °F - 43.0 °F 71% 30.01 in 10.0 mi East 5.8 mph - N/A   Clear
9:53 PM 50.0 °F - 43.0 °F 77% 30.03 in 10.0 mi Calm Calm - N/A   Clear
10:53 PM 50.0 °F - 42.1 °F 74% 30.04 in 10.0 mi Calm Calm - N/A   Clear
11:53 PM 48.0 °F - 42.1 °F 80% 30.04 in 10.0 mi Calm Calm - N/A   Clear